Location: Newark
(40.2401°N, 1.4098°W)
Time: 09:50:31
(UTC+00:00)

Hubble Space Telescope - Visible Passes

Search period start: 21 March 2019 00:00
Search period end: 31 March 2019 00:00
Orbit: 537 x 540 km, 28.5° (Epoch: 20 March)

Date Brightness Start Highest point End Pass type
(mag) Time Alt. Az. Time Alt. Az. Time Alt. Az.
25 Mar 3.1 20:06:53 10° SSW 20:07:44 12° S 20:07:44 12° S visible
26 Mar 2.8 19:56:02 10° SSW 19:58:02 14° S 19:58:02 14° S visible
27 Mar 2.7 19:45:17 10° SSW 19:47:44 15° S 19:48:17 15° SSE visible
28 Mar 2.7 19:34:35 10° SW 19:37:08 16° S 19:38:28 14° SSE visible
29 Mar 2.8 19:23:58 10° SW 19:26:31 16° S 19:28:38 12° SSE visible
30 Mar 2.9 19:13:23 10° SW 19:15:54 16° S 19:18:26 10° SE visible
